This demonstration page uses our WeatherBlox Daily Observations layout. Learn more.

Left ArrowRight Arrow

36.17497, -115.13722

Hourly Observations for September 2, 2015

Temp ( °F °C ) Dew Point ( °F °C ) Humidity (%) Winds ( mph kmh ) Pressure ( in mb ) Visibility ( mi km ) Precip ( " mm )
12:53 am 00:53 Clear 87 30.6 54 12.2 32 32 SW 7 11 29.83 1010 10 16 N/A
1:53 am 01:53 Clear 86 30 54 12.2 33 33 SSW 7 11 29.84 1010 10 16 N/A
2:53 am 02:53 Clear 84 28.9 54 12.2 36 36 S 8 13 29.84 1011 10 16 N/A
3:53 am 03:53 Clear 83 28.3 55 12.8 38 38 S 5 7 29.84 1011 10 16 N/A
4:53 am 04:53 Clear 81 27.2 54 12.2 39 39 ESE 6 9 29.85 1011 10 16 N/A
5:53 am 05:53 Clear 81 27.2 55 12.8 41 41 SSE 6 9 29.86 1011 10 16 N/A
6:53 am 06:53 Sunny 82 27.8 55 12.8 40 40 SSW 7 11 29.88 1012 10 16 N/A
7:53 am 07:53 Sunny 84 28.9 55 12.8 37 37 E 5 7 29.90 1012 10 16 N/A
8:53 am 08:53 Sunny 87 30.6 55 12.8 34 34 ESE 9 15 29.89 1012 10 16 N/A
9:53 am 09:53 Sunny 90 32.2 53 11.7 28 28 S 15 24 29.89 1012 10 16 N/A
10:53 am 10:53 Sunny 92 33.3 52 11.1 26 26 S 13 20 29.88 1012 10 16 N/A
11:53 am 11:53 Sunny 94 34.4 50 10 22 22 SSE 15 24 29.85 1011 10 16 N/A
12:53 pm 12:53 Sunny 98 36.7 46 7.8 17 17 SSW 21 33 29.83 1010 10 16 N/A
1:53 pm 13:53 Sunny 99 37.2 45 7.2 16 16 S 16 26 29.81 1009 10 16 N/A
2:53 pm 14:53 Sunny 99 37.2 42 5.6 14 14 S 12 19 29.77 1008 10 16 N/A
3:53 pm 15:53 Sunny 100 37.8 41 5 13 13 S 16 26 29.74 1007 10 16 N/A
4:53 pm 16:53 Sunny 99 37.2 39 3.9 12 12 S 21 33 29.73 1007 10 16 N/A
5:53 pm 17:53 Sunny 98 36.7 38 3.3 12 12 S 16 26 29.73 1007 10 16 N/A
6:53 pm 18:53 Sunny 95 35 41 5 15 15 S 15 24 29.73 1007 10 16 N/A
7:53 pm 19:53 Clear 92 33.3 39 3.9 16 16 S 22 35 29.75 1007 10 16 N/A
8:53 pm 20:53 Clear 91 32.8 38 3.3 15 15 S 16 26 29.78 1008 10 16 N/A
9:53 pm 21:53 Clear 90 32.2 38 3.3 16 16 S 12 19 29.79 1009 10 16 N/A
10:53 pm 22:53 Clear 87 30.6 40 4.4 19 19 S 8 13 29.79 1009 10 16 N/A
11:53 pm 23:53 Clear 86 30 44 6.7 23 23 SSW 8 13 29.80 1009 10 16 N/A

Powered by AerisWeather